QPF
0.00 0.00 0.00 0.00 0.00 0.00 0.01 0.01 0.02 0.03 0.07 0.13 0.19 0.27 0.31 0.30 0.28 0.29 0.29 0.27 0.24 0.20 0.17 0.17 0.15 0.13 0.11 0.08 0.06 0.04 0.03 0.02 0.01 0.01 0.00 0.00 0.00 0.00 0.00 0.00 0.00 0.00 0.00
0.00 0.00 0.00 0.00 0.00 0.00 0.00 0.00 0.01 0.04 0.10 0.19 0.27 0.36 0.44 0.45 0.48 0.54 0.54 0.49 0.39 0.31 0.27 0.23 0.18 0.13 0.10 0.07 0.05 0.04 0.03 0.02 0.01 0.01 0.00 0.00 0.00 0.00 0.00 0.00 0.00 0.00 0.00
0.00 0.00 0.00 0.00 0.00 0.00 0.01 0.01 0.02 0.07 0.19 0.31 0.39 0.48 0.61 0.70 0.73 0.71 0.64 0.57 0.45 0.36 0.32 0.27 0.21 0.14 0.11 0.09 0.07 0.05 0.03 0.02 0.01 0.01 0.00 0.00 0.00 0.00 0.00 0.00 0.00 0.00 0.00
0.00 0.00 0.00 0.00 0.00 0.00 0.01 0.02 0.04 0.12 0.25 0.37 0.48 0.65 0.83 0.88 0.78 0.63 0.50 0.45 0.40 0.36 0.31 0.26 0.21 0.18 0.16 0.11 0.05 0.02 0.01 0.01 0.00 0.00 0.00 0.00 0.00 0.00 0.00 0.00 0.00 0.00 0.00
0.00 0.00 0.00 0.00 0.00 0.01 0.02 0.04 0.10 0.22 0.37 0.54 0.68 0.87 0.99 0.86 0.67 0.53 0.44 0.39 0.34 0.31 0.28 0.25 0.23 0.20 0.13 0.07 0.02 0.01 0.01 0.00 0.00 0.00 0.00 0.00 0.00 0.00 0.00 0.00 0.00 0.00 0.00
0.00 0.00 0.01 0.01 0.01 0.02 0.05 0.09 0.19 0.33 0.49 0.69 0.87 0.98 0.92 0.76 0.57 0.44 0.39 0.37 0.32 0.28 0.24 0.20 0.16 0.10 0.05 0.03 0.01 0.01 0.00 0.00 0.00 0.00 0.00 0.00 0.00 0.00 0.00 0.00 0.00 0.00 0.00
0.01 0.01 0.01 0.02 0.02 0.05 0.08 0.14 0.21 0.40 0.59 0.80 0.96 0.93 0.77 0.58 0.41 0.34 0.30 0.27 0.24 0.21 0.15 0.10 0.07 0.04 0.02 0.02 0.01 0.00 0.00 0.00 0.00 0.00 0.00 0.00 0.00 0.00 0.00 0.00 0.00 0.00 0.00
0.01 0.01 0.02 0.03 0.04 0.07 0.13 0.20 0.31 0.48 0.65 0.71 0.67 0.52 0.39 0.31 0.27 0.25 0.23 0.19 0.14 0.10 0.07 0.05 0.03 0.02 0.01 0.01 0.00 0.00 0.00 0.00 0.00 0.00 0.00 0.00 0.00 0.00 0.00 0.00 0.00 0.00 0.00
0.02 0.03 0.03 0.04 0.06 0.10 0.17 0.23 0.26 0.32 0.34 0.30 0.26 0.20 0.15 0.13 0.13 0.11 0.09 0.07 0.06 0.04 0.03 0.02 0.01 0.01 0.01 0.00 0.00 0.00 0.00 0.00 0.00 0.00 0.00 0.00 0.00 0.00 0.00 0.00 0.00 0.00 0.01
0.02 0.03 0.04 0.04 0.06 0.07 0.08 0.09 0.10 0.10 0.10 0.09 0.08 0.07 0.06 0.05 0.04 0.03 0.04 0.03 0.03 0.03 0.02 0.01 0.01 0.00 0.00 0.00 0.00 0.00 0.00 0.00 0.00 0.00 0.00 0.00 0.00 0.00 0.00 0.00 0.00 0.00 0.00
0.02 0.02 0.03 0.03 0.03 0.03 0.02 0.02 0.02 0.02 0.02 0.03 0.03 0.02 0.02 0.01 0.01 0.01 0.01 0.01 0.01 0.01 0.01 0.01 0.00 0.00 0.00 0.00 0.00 0.00 0.00 0.00 0.00 0.00 0.00 0.00 0.00 0.00 0.00 0.00 0.00 0.00 0.00
0.02 0.02 0.02 0.02 0.02 0.01 0.01 0.01 0.01 0.01 0.01 0.01 0.01 0.00 0.00 0.01 0.01 0.01 0.01 0.01 0.01 0.01 0.01 0.01 0.01 0.01 0.00 0.00 0.00 0.00 0.00 0.00 0.00 0.00 0.00 0.00 0.00 0.00 0.00 0.00 0.00 0.00 0.00
0.02 0.02 0.01 0.01 0.01 0.00 0.00 0.00 0.00 0.00 0.00 0.00 0.00 0.00 0.00 0.00 0.01 0.01 0.01 0.01 0.01 0.01 0.01 0.01 0.01 0.01 0.01 0.00 0.00 0.00 0.00 0.00 0.00 0.00 0.00 0.00 0.00 0.00 0.00 0.00 0.00 0.00 0.00
0.01 0.01 0.01 0.00 0.00 0.00 0.00 0.00 0.00 0.00 0.00 0.00 0.00 0.00 0.01 0.01 0.01 0.01 0.01 0.01 0.01 0.01 0.02 0.01 0.01 0.01 0.01 0.00 0.00 0.00 0.00 0.00 0.00 0.00 0.00 0.00 0.00 0.00 0.00 0.00 0.00 0.00 0.00
0.01 0.00 0.00 0.00 0.00 0.00 0.00 0.00 0.00 0.00 0.00 0.00 0.01 0.01 0.01 0.02 0.02 0.03 0.03 0.03 0.03 0.02 0.02 0.01 0.01 0.01 0.00 0.00 0.00 0.00 0.00 0.00 0.00 0.00 0.00 0.00 0.00 0.00 0.00 0.01 0.01 0.01 0.01
0.01 0.01 0.01 0.00 0.00 0.00 0.00 0.00 0.00 0.00 0.01 0.01 0.03 0.03 0.04 0.05 0.05 0.05 0.04 0.04 0.03 0.02 0.02 0.01 0.01 0.00 0.00 0.00 0.00 0.00 0.00 0.00 0.00 0.00 0.00 0.00 0.00 0.00 0.00 0.00 0.01 0.02 0.03
0.01 0.00 0.00 0.00 0.00 0.00 0.00 0.01 0.01 0.01 0.02 0.03 0.04 0.05 0.06 0.06 0.05 0.05 0.04 0.03 0.02 0.02 0.01 0.01 0.00 0.00 0.00 0.00 0.00 0.00 0.00 0.00 0.00 0.00 0.00 0.00 0.00 0.00 0.00 0.00 0.00 0.00 0.01
0.00 0.00 0.00 0.00 0.01 0.01 0.01 0.01 0.01 0.02 0.03 0.04 0.05 0.05 0.05 0.05 0.04 0.03 0.02 0.02 0.01 0.01 0.00 0.00 0.00 0.00 0.00 0.00 0.00 0.00 0.00 0.00 0.00 0.00 0.00 0.00 0.00 0.00 0.01 0.00 0.00 0.00 0.00
0.00 0.00 0.00 0.01 0.01 0.01 0.01 0.02 0.03 0.04 0.04 0.04 0.04 0.03 0.03 0.02 0.01 0.01 0.00 0.00 0.00 0.00 0.00 0.00 0.00 0.00 0.00 0.00 0.00 0.00 0.00 0.00 0.00 0.00 0.00 0.00 0.00 0.00 0.01 0.01 0.01 0.01 0.00
0.00 0.00 0.00 0.01 0.01 0.02 0.02 0.03 0.04 0.04 0.03 0.02 0.01 0.01 0.00 0.00 0.00 0.00 0.00 0.00 0.00 0.00 0.00 0.00 0.00 0.00 0.00 0.00 0.00 0.00 0.00 0.00 0.00 0.00 0.00 0.00 0.00 0.01 0.01 0.01 0.01 0.01 0.01
0.00 0.01 0.01 0.01 0.02 0.02 0.02 0.02 0.02 0.02 0.01 0.01 0.00 0.00 0.00 0.00 0.00 0.00 0.00 0.00 0.00 0.00 0.00 0.00 0.00 0.00 0.00 0.00 0.00 0.00 0.00 0.00 0.00 0.00 0.00 0.00 0.00 0.00 0.01 0.01 0.01 0.02 0.02
0.01 0.01 0.01 0.01 0.01 0.01 0.01 0.01 0.01 0.00 0.00 0.00 0.00 0.00 0.00 0.00 0.00 0.00 0.00 0.00 0.00 0.00 0.00 0.00 0.00 0.00 0.00 0.00 0.00 0.00 0.00 0.00 0.00 0.01 0.01 0.01 0.01 0.01 0.01 0.01 0.01 0.01 0.02
0.01 0.01 0.01 0.01 0.01 0.00 0.00 0.00 0.00 0.00 0.00 0.00 0.00 0.00 0.00 0.00 0.00 0.00 0.00 0.00 0.00 0.00 0.00 0.00 0.00 0.00 0.00 0.00 0.00 0.00 0.00 0.00 0.00 0.01 0.01 0.01 0.01 0.01 0.01 0.01 0.01 0.02 0.02
0.00 0.01 0.00 0.00 0.00 0.00 0.00 0.00 0.00 0.00 0.00 0.00 0.00 0.00 0.00 0.00 0.00 0.00 0.00 0.00 0.00 0.00 0.00 0.00 0.00 0.00 0.00 0.00 0.00 0.00 0.00 0.00 0.00 0.01 0.01 0.01 0.01 0.01 0.01 0.01 0.02 0.02 0.03
0.00 0.00 0.00 0.00 0.00 0.00 0.00 0.00 0.00 0.00 0.00 0.00 0.00 0.00 0.00 0.00 0.00 0.00 0.00 0.00 0.00 0.00 0.00 0.00 0.00 0.00 0.00 0.00 0.00 0.01 0.01 0.01 0.01 0.01 0.01 0.00 0.00 0.01 0.01 0.01 0.02 0.03 0.03
0.00 0.00 0.00 0.00 0.00 0.00 0.00 0.00 0.00 0.00 0.00 0.00 0.00 0.00 0.00 0.00 0.00 0.00 0.00 0.00 0.00 0.00 0.00 0.00 0.00 0.00 0.01 0.01 0.01 0.01 0.01 0.01 0.01 0.01 0.00 0.01 0.01 0.02 0.02 0.02 0.03 0.03 0.04
MSLP
1007.46 1007.36 1007.33 1007.36 1007.46 1007.64 1007.92 1008.33 1008.88 1009.54 1010.31 1011.14 1012.00 1012.83 1013.61 1014.30 1014.88 1015.38 1015.79 1016.13 1016.42 1016.70 1016.96 1017.24 1017.53 1017.84 1018.17 1018.51 1018.86 1019.21 1019.55 1019.87 1020.17 1020.43 1020.67 1020.86 1021.02 1021.15 1021.24 1021.30 1021.32 1021.32 1021.28
1007.29 1007.19 1007.16 1007.18 1007.28 1007.46 1007.76 1008.20 1008.79 1009.52 1010.37 1011.30 1012.25 1013.17 1014.01 1014.74 1015.34 1015.82 1016.20 1016.51 1016.77 1017.01 1017.25 1017.51 1017.78 1018.08 1018.38 1018.70 1019.03 1019.36 1019.68 1020.00 1020.30 1020.59 1020.85 1021.08 1021.27 1021.42 1021.52 1021.59 1021.61 1021.59 1021.55
1007.31 1007.22 1007.20 1007.25 1007.36 1007.55 1007.85 1008.30 1008.91 1009.67 1010.57 1011.54 1012.54 1013.51 1014.39 1015.14 1015.75 1016.24 1016.61 1016.90 1017.15 1017.38 1017.60 1017.84 1018.09 1018.36 1018.63 1018.92 1019.20 1019.49 1019.79 1020.09 1020.39 1020.69 1020.97 1021.22 1021.44 1021.61 1021.73 1021.80 1021.81 1021.79 1021.72
1007.54 1007.49 1007.51 1007.58 1007.70 1007.90 1008.20 1008.63 1009.22 1009.97 1010.85 1011.82 1012.82 1013.79 1014.67 1015.43 1016.06 1016.56 1016.95 1017.26 1017.52 1017.76 1017.99 1018.22 1018.46 1018.70 1018.93 1019.17 1019.40 1019.64 1019.90 1020.17 1020.46 1020.76 1021.06 1021.33 1021.56 1021.74 1021.86 1021.92 1021.92 1021.87 1021.78
1008.02 1008.01 1008.07 1008.17 1008.31 1008.50 1008.78 1009.17 1009.71 1010.39 1011.20 1012.11 1013.05 1013.98 1014.84 1015.60 1016.23 1016.76 1017.19 1017.54 1017.85 1018.13 1018.39 1018.64 1018.88 1019.10 1019.29 1019.48 1019.66 1019.85 1020.06 1020.30 1020.56 1020.85 1021.14 1021.41 1021.64 1021.81 1021.92 1021.95 1021.92 1021.83 1021.71
1008.72 1008.76 1008.86 1008.99 1009.14 1009.32 1009.56 1009.88 1010.33 1010.92 1011.62 1012.42 1013.27 1014.12 1014.92 1015.66 1016.30 1016.86 1017.34 1017.76 1018.13 1018.48 1018.80 1019.08 1019.33 1019.54 1019.71 1019.85 1019.98 1020.12 1020.28 1020.47 1020.70 1020.96 1021.23 1021.48 1021.68 1021.83 1021.90 1021.90 1021.82 1021.69 1021.52
1009.60 1009.68 1009.83 1009.99 1010.15 1010.31 1010.50 1010.75 1011.10 1011.56 1012.13 1012.79 1013.52 1014.26 1015.00 1015.69 1016.34 1016.92 1017.45 1017.95 1018.40 1018.82 1019.20 1019.52 1019.80 1020.00 1020.16 1020.27 1020.36 1020.45 1020.56 1020.71 1020.89 1021.11 1021.33 1021.54 1021.71 1021.81 1021.83 1021.77 1021.64 1021.46 1021.24
1010.57 1010.72 1010.90 1011.09 1011.26 1011.41 1011.56 1011.74 1011.99 1012.33 1012.76 1013.28 1013.88 1014.51 1015.16 1015.80 1016.43 1017.03 1017.60 1018.16 1018.68 1019.16 1019.59 1019.96 1020.25 1020.47 1020.61 1020.70 1020.75 1020.80 1020.87 1020.97 1021.11 1021.28 1021.45 1021.61 1021.72 1021.76 1021.72 1021.60 1021.42 1021.17 1020.90
1011.57 1011.78 1012.01 1012.24 1012.42 1012.57 1012.69 1012.82 1013.00 1013.23 1013.55 1013.95 1014.42 1014.94 1015.50 1016.08 1016.67 1017.26 1017.85 1018.43 1018.99 1019.51 1019.98 1020.37 1020.68 1020.89 1021.03 1021.10 1021.12 1021.14 1021.18 1021.24 1021.33 1021.45 1021.57 1021.66 1021.71 1021.69 1021.59 1021.41 1021.16 1020.87 1020.54
1012.55 1012.82 1013.10 1013.36 1013.57 1013.73 1013.86 1013.96 1014.09 1014.27 1014.50 1014.80 1015.17 1015.59 1016.07 1016.57 1017.11 1017.66 1018.24 1018.81 1019.37 1019.89 1020.36 1020.75 1021.05 1021.26 1021.38 1021.43 1021.44 1021.44 1021.45 1021.48 1021.53 1021.60 1021.66 1021.70 1021.68 1021.60 1021.44 1021.20 1020.91 1020.57 1020.20
1013.48 1013.81 1014.14 1014.43 1014.68 1014.86 1015.00 1015.12 1015.24 1015.39 1015.58 1015.82 1016.12 1016.47 1016.85 1017.28 1017.75 1018.25 1018.76 1019.29 1019.81 1020.29 1020.73 1021.09 1021.36 1021.54 1021.65 1021.68 1021.68 1021.67 1021.65 1021.66 1021.68 1021.70 1021.72 1021.70 1021.62 1021.48 1021.27 1020.98 1020.65 1020.28 1019.88
1014.38 1014.75 1015.11 1015.44 1015.71 1015.92 1016.09 1016.24 1016.38 1016.53 1016.71 1016.93 1017.18 1017.47 1017.80 1018.15 1018.54 1018.96 1019.39 1019.84 1020.28 1020.70 1021.08 1021.38 1021.61 1021.76 1021.84 1021.86 1021.85 1021.82 1021.79 1021.77 1021.76 1021.75 1021.72 1021.65 1021.52 1021.33 1021.07 1020.74 1020.37 1019.97 1019.56
1015.28 1015.67 1016.05 1016.38 1016.66 1016.90 1017.09 1017.27 1017.44 1017.62 1017.82 1018.03 1018.27 1018.52 1018.79 1019.08 1019.39 1019.72 1020.06 1020.42 1020.77 1021.11 1021.41 1021.65 1021.82 1021.93 1021.98 1021.98 1021.95 1021.91 1021.87 1021.83 1021.79 1021.74 1021.67 1021.55 1021.37 1021.12 1020.82 1020.46 1020.06 1019.64 1019.20
1016.20 1016.60 1016.96 1017.28 1017.55 1017.78 1017.98 1018.18 1018.38 1018.59 1018.81 1019.03 1019.27 1019.50 1019.73 1019.96 1020.20 1020.45 1020.71 1020.98 1021.25 1021.50 1021.72 1021.90 1022.02 1022.09 1022.10 1022.08 1022.03 1021.97 1021.90 1021.84 1021.76 1021.67 1021.55 1021.38 1021.15 1020.86 1020.51 1020.11 1019.68 1019.23 1018.77
1017.18 1017.55 1017.88 1018.14 1018.37 1018.57 1018.76 1018.96 1019.17 1019.40 1019.64 1019.88 1020.11 1020.33 1020.54 1020.73 1020.92 1021.11 1021.30 1021.49 1021.69 1021.87 1022.03 1022.15 1022.22 1022.25 1022.24 1022.19 1022.11 1022.02 1021.92 1021.81 1021.69 1021.55 1021.37 1021.14 1020.86 1020.52 1020.12 1019.69 1019.22 1018.74 1018.25
1018.20 1018.53 1018.79 1018.99 1019.15 1019.30 1019.45 1019.63 1019.83 1020.06 1020.31 1020.55 1020.78 1021.00 1021.19 1021.36 1021.51 1021.66 1021.80 1021.95 1022.09 1022.22 1022.34 1022.42 1022.46 1022.46 1022.41 1022.32 1022.21 1022.07 1021.92 1021.76 1021.58 1021.37 1021.13 1020.84 1020.51 1020.12 1019.68 1019.20 1018.70 1018.18 1017.67
1019.24 1019.51 1019.69 1019.81 1019.90 1019.97 1020.08 1020.21 1020.39 1020.61 1020.84 1021.08 1021.32 1021.52 1021.70 1021.86 1021.99 1022.12 1022.23 1022.35 1022.47 1022.58 1022.67 1022.72 1022.73 1022.70 1022.62 1022.49 1022.33 1022.14 1021.92 1021.69 1021.44 1021.16 1020.85 1020.50 1020.11 1019.67 1019.18 1018.67 1018.13 1017.59 1017.04
1020.25 1020.46 1020.57 1020.61 1020.62 1020.63 1020.67 1020.76 1020.91 1021.09 1021.32 1021.54 1021.76 1021.97 1022.14 1022.28 1022.41 1022.52 1022.63 1022.74 1022.85 1022.94 1023.02 1023.05 1023.04 1022.98 1022.86 1022.69 1022.47 1022.21 1021.92 1021.61 1021.28 1020.93 1020.55 1020.14 1019.69 1019.20 1018.69 1018.14 1017.58 1017.01 1016.44
1021.17 1021.34 1021.39 1021.37 1021.32 1021.27 1021.27 1021.32 1021.43 1021.59 1021.79 1022.00 1022.21 1022.40 1022.56 1022.70 1022.82 1022.93 1023.04 1023.14 1023.24 1023.32 1023.38 1023.40 1023.37 1023.27 1023.11 1022.88 1022.60 1022.27 1021.91 1021.52 1021.12 1020.69 1020.25 1019.78 1019.29 1018.77 1018.23 1017.66 1017.08 1016.49 1015.92
1021.98 1022.11 1022.13 1022.07 1021.99 1021.91 1021.87 1021.90 1021.99 1022.13 1022.31 1022.51 1022.70 1022.88 1023.03 1023.16 1023.27 1023.37 1023.46 1023.55 1023.64 1023.70 1023.74 1023.74 1023.67 1023.54 1023.33 1023.05 1022.71 1022.31 1021.88 1021.42 1020.95 1020.47 1019.97 1019.47 1018.94 1018.40 1017.84 1017.27 1016.68 1016.09 1015.51
1022.64 1022.76 1022.76 1022.70 1022.61 1022.52 1022.48 1022.49 1022.57 1022.71 1022.87 1023.06 1023.24 1023.40 1023.54 1023.65 1023.75 1023.83 1023.90 1023.97 1024.03 1024.07 1024.08 1024.03 1023.93 1023.75 1023.50 1023.17 1022.77 1022.32 1021.84 1021.33 1020.80 1020.28 1019.75 1019.22 1018.68 1018.12 1017.56 1016.98 1016.40 1015.81 1015.23
1023.16 1023.28 1023.29 1023.24 1023.16 1023.09 1023.05 1023.07 1023.15 1023.28 1023.44 1023.62 1023.79 1023.94 1024.06 1024.15 1024.22 1024.28 1024.32 1024.35 1024.38 1024.38 1024.34 1024.26 1024.11 1023.89 1023.60 1023.23 1022.79 1022.31 1021.79 1021.24 1020.69 1020.14 1019.59 1019.05 1018.50 1017.95 1017.38 1016.81 1016.23 1015.65 1015.07
1023.56 1023.69 1023.71 1023.68 1023.62 1023.56 1023.55 1023.58 1023.66 1023.80 1023.95 1024.12 1024.28 1024.42 1024.52 1024.60 1024.64 1024.67 1024.68 1024.67 1024.65 1024.60 1024.52 1024.40 1024.21 1023.95 1023.62 1023.23 1022.77 1022.27 1021.74 1021.18 1020.63 1020.07 1019.52 1018.97 1018.43 1017.88 1017.32 1016.75 1016.17 1015.59 1015.02
1023.87 1024.00 1024.03 1024.01 1023.96 1023.93 1023.92 1023.96 1024.05 1024.17 1024.33 1024.49 1024.64 1024.77 1024.86 1024.92 1024.95 1024.95 1024.92 1024.88 1024.81 1024.73 1024.60 1024.43 1024.21 1023.93 1023.59 1023.19 1022.73 1022.23 1021.71 1021.17 1020.62 1020.08 1019.53 1019.00 1018.46 1017.91 1017.35 1016.78 1016.20 1015.63 1015.05
1024.10 1024.22 1024.25 1024.24 1024.19 1024.16 1024.15 1024.18 1024.26 1024.37 1024.52 1024.67 1024.82 1024.94 1025.03 1025.08 1025.10 1025.08 1025.04 1024.96 1024.87 1024.74 1024.59 1024.39 1024.15 1023.85 1023.51 1023.12 1022.68 1022.21 1021.71 1021.20 1020.68 1020.16 1019.64 1019.11 1018.58 1018.04 1017.48 1016.91 1016.32 1015.74 1015.16
1024.29 1024.38 1024.40 1024.37 1024.31 1024.26 1024.23 1024.24 1024.29 1024.39 1024.51 1024.65 1024.79 1024.91 1025.01 1025.06 1025.08 1025.06 1025.01 1024.92 1024.81 1024.67 1024.49 1024.28 1024.04 1023.75 1023.42 1023.05 1022.64 1022.21 1021.75 1021.28 1020.80 1020.31 1019.81 1019.31 1018.79 1018.25 1017.69 1017.12 1016.53 1015.93 1015.35
Thickness
5800 5800 5798 5797 5794 5790 5785 5780 5774 5768 5759 5749 5740 5730 5722 5716 5710 5704 5700 5696 5693 5689 5684 5680 5676 5672 5667 5663 5658 5653 5648 5644 5641 5639 5634 5629 5626 5623 5620 5618 5616 5613 5611
5788 5791 5793 5793 5792 5789 5784 5779 5773 5766 5757 5747 5737 5726 5716 5707 5700 5694 5689 5683 5682 5680 5677 5672 5667 5663 5657 5652 5649 5645 5639 5634 5631 5629 5625 5620 5616 5612 5609 5605 5603 5599 5596
5781 5784 5785 5786 5786 5782 5779 5776 5770 5760 5750 5740 5728 5716 5706 5696 5689 5682 5678 5673 5671 5669 5665 5662 5657 5653 5649 5644 5639 5636 5631 5624 5618 5616 5614 5610 5607 5600 5597 5593 5589 5586 5583
5775 5777 5779 5778 5777 5777 5775 5768 5760 5750 5741 5733 5723 5711 5699 5688 5679 5673 5667 5663 5661 5658 5654 5651 5647 5643 5639 5634 5629 5625 5621 5616 5609 5603 5599 5596 5592 5588 5586 5582 5577 5573 5570
5766 5769 5771 5771 5769 5767 5762 5755 5747 5739 5732 5724 5715 5704 5692 5681 5670 5663 5656 5652 5651 5648 5645 5641 5637 5633 5628 5623 5618 5614 5609 5604 5598 5592 5586 5581 5575 5571 5570 5569 5565 5562 5557
5755 5757 5759 5759 5755 5752 5748 5742 5734 5726 5720 5712 5703 5694 5684 5672 5663 5655 5649 5645 5641 5636 5634 5629 5625 5621 5616 5611 5606 5602 5596 5590 5585 5579 5574 5569 5564 5559 5553 5551 5550 5548 5546
5741 5743 5743 5742 5740 5736 5733 5727 5721 5713 5707 5700 5692 5684 5676 5666 5657 5650 5643 5637 5632 5627 5623 5619 5614 5609 5604 5599 5594 5589 5583 5577 5572 5566 5560 5555 5550 5544 5539 5536 5535 5533 5532
5727 5728 5728 5727 5725 5721 5718 5713 5707 5701 5694 5688 5680 5672 5665 5656 5649 5642 5635 5629 5623 5617 5612 5608 5602 5597 5591 5586 5580 5575 5569 5564 5558 5552 5546 5540 5534 5529 5524 5520 5517 5519 5520
5711 5711 5710 5709 5707 5704 5700 5697 5692 5685 5678 5673 5666 5659 5652 5645 5638 5631 5625 5619 5613 5606 5600 5594 5589 5583 5577 5571 5566 5560 5554 5548 5542 5536 5530 5525 5519 5514 5508 5503 5498 5497 5503
5695 5694 5693 5691 5688 5686 5682 5678 5673 5668 5662 5656 5650 5643 5637 5631 5625 5618 5612 5606 5599 5593 5587 5580 5573 5567 5561 5555 5549 5542 5536 5530 5524 5519 5514 5509 5504 5498 5493 5488 5482 5478 5477
5679 5677 5675 5673 5670 5668 5664 5660 5656 5651 5645 5638 5633 5626 5620 5614 5608 5602 5596 5590 5584 5578 5571 5563 5556 5550 5543 5537 5531 5524 5518 5512 5507 5502 5497 5492 5487 5482 5477 5472 5468 5463 5459
5664 5662 5660 5658 5656 5652 5648 5644 5639 5634 5628 5622 5615 5609 5603 5597 5592 5585 5579 5573 5566 5559 5552 5546 5539 5532 5525 5519 5513 5506 5500 5495 5490 5486 5481 5476 5473 5467 5463 5459 5454 5450 5446
5650 5646 5644 5642 5639 5636 5632 5627 5622 5617 5612 5606 5599 5592 5585 5579 5573 5566 5560 5554 5548 5541 5534 5528 5521 5514 5507 5501 5495 5489 5484 5479 5475 5470 5466 5462 5458 5455 5451 5446 5442 5439 5436
5634 5630 5626 5623 5620 5617 5614 5610 5605 5600 5595 5589 5582 5574 5567 5560 5554 5548 5541 5535 5528 5522 5515 5508 5502 5496 5489 5484 5478 5474 5469 5465 5460 5457 5453 5450 5446 5444 5440 5436 5433 5429 5426
5619 5614 5610 5605 5602 5598 5594 5591 5586 5581 5576 5570 5564 5556 5549 5542 5536 5529 5522 5516 5510 5503 5496 5490 5484 5479 5474 5469 5464 5459 5455 5451 5448 5445 5441 5438 5437 5435 5431 5428 5425 5421 5419
5602 5598 5594 5589 5584 5580 5576 5571 5567 5562 5558 5552 5545 5538 5531 5524 5517 5510 5504 5498 5491 5485 5479 5473 5468 5463 5459 5455 5450 5447 5443 5439 5437 5434 5431 5428 5426 5424 5421 5418 5415 5413 5413
5586 5580 5575 5570 5566 5561 5557 5552 5547 5543 5538 5532 5526 5519 5513 5505 5499 5493 5486 5480 5473 5468 5462 5457 5453 5449 5445 5441 5438 5434 5431 5428 5426 5423 5421 5419 5417 5415 5412 5410 5409 5408 5407
5566 5561 5556 5551 5546 5542 5537 5533 5528 5523 5517 5511 5505 5499 5493 5486 5480 5475 5468 5462 5456 5451 5447 5443 5439 5435 5432 5429 5425 5422 5419 5417 5416 5415 5413 5410 5409 5408 5406 5405 5405 5406 5406
5546 5542 5537 5533 5528 5524 5519 5514 5509 5504 5498 5492 5486 5480 5475 5468 5462 5457 5450 5445 5441 5436 5432 5428 5425 5422 5419 5416 5413 5411 5409 5408 5408 5407 5406 5404 5403 5402 5401 5402 5403 5405 5407
5529 5525 5521 5517 5512 5507 5502 5497 5490 5485 5480 5474 5468 5463 5457 5452 5445 5440 5435 5430 5426 5422 5419 5415 5412 5409 5406 5405 5403 5401 5400 5399 5400 5400 5400 5399 5398 5399 5399 5401 5403 5406 5408
5514 5510 5506 5501 5495 5491 5486 5479 5474 5468 5463 5458 5453 5447 5442 5436 5431 5425 5421 5416 5412 5408 5405 5402 5400 5398 5396 5395 5394 5393 5392 5391 5392 5394 5395 5396 5396 5398 5400 5401 5404 5405 5407
5500 5496 5491 5485 5480 5475 5470 5464 5459 5454 5450 5445 5439 5434 5429 5424 5418 5413 5408 5403 5399 5396 5393 5390 5389 5388 5387 5386 5386 5386 5386 5386 5387 5389 5391 5393 5395 5398 5401 5404 5405 5407 5408
5486 5482 5477 5471 5466 5461 5457 5452 5447 5443 5438 5433 5427 5421 5416 5410 5406 5401 5396 5392 5388 5385 5382 5380 5380 5379 5380 5380 5380 5381 5381 5383 5384 5386 5390 5393 5396 5400 5403 5405 5407 5408 5409
5474 5469 5465 5460 5454 5451 5447 5443 5439 5435 5429 5422 5416 5410 5404 5399 5394 5389 5385 5382 5379 5376 5375 5373 5373 5372 5373 5374 5374 5375 5377 5380 5383 5386 5390 5394 5398 5401 5403 5406 5408 5409 5409
5463 5458 5454 5450 5446 5443 5439 5435 5431 5425 5419 5412 5406 5399 5394 5389 5384 5380 5377 5374 5372 5369 5368 5367 5366 5366 5367 5367 5367 5368 5373 5376 5380 5385 5390 5394 5398 5401 5403 5406 5408 5409 5409
5455 5451 5447 5444 5440 5436 5432 5427 5422 5416 5409 5402 5396 5390 5385 5380 5377 5373 5371 5369 5367 5366 5364 5363 5362 5362 5362 5363 5366 5369 5373 5377 5381 5386 5389 5393 5396 5398 5401 5404 5407 5408 5408